WX4SKY Weather Reports


Display with metric or nautical units.
time (UTC)temp
F
wind
direction
speed
MPH
gust
MPH
rain 1hr
in
rain 24hr
in
rain mn
in
humidity
%
barometer
mb
20260503050055 45 0 0.0 0.0 0.00 0.10 0.00 89 1018.6
20260503044555 45 0 0.0 0.0 0.00 0.10 0.00 88 1018.4
20260503043054 45 0 0.0 0.0 0.00 0.10 0.00 88 1018.2
20260503041605 46 0 0.0 0.0 0.00 0.10 0.00 86 1018.3
20260503040058 46 0 0.0 0.0 0.00 0.10 0.00 85 1018.4
20260503034607 46 0 0.0 0.0 0.00 0.10 0.10 85 1018.1
20260503033105 47 0 0.0 0.0 0.00 0.10 0.10 85 1018.1
20260503031555 48 0 0.0 0.0 0.00 0.10 0.10 82 1018.0
20260503030110 48 0 0.0 0.0 0.00 0.10 0.10 81 1017.9
20260503024554 49 0 0.0 0.0 0.00 0.10 0.10 79 1017.7
20260503023109 50 0 0.0 0.0 0.00 0.10 0.10 76 1017.6
20260503021557 51 0 0.0 0.0 0.00 0.10 0.10 75 1017.4
20260503020056 52 0 0.0 0.0 0.00 0.10 0.10 73 1017.2
20260503014615 53 0 0.0 0.0 0.00 0.10 0.10 69 1016.9
20260503013055 54 0 0.0 0.0 0.00 0.10 0.10 66 1016.8
20260503011602 55 0 0.0 0.0 0.00 0.10 0.10 65 1016.6
20260503010052 56 0 0.0 0.0 0.00 0.10 0.10 62 1016.4
20260503004601 57 0 0.0 0.0 0.00 0.10 0.10 56 1016.1
20260503003058 59 0 0.0 0.0 0.00 0.10 0.10 54 1015.9
20260503001555 61 0 0.0 1.0 0.00 0.10 0.10 49 1015.7
20260503000055 62 214 0.0 5.0 0.00 0.10 0.10 45 1015.4
20260502234555 63 0 1.0 8.0 0.00 0.10 0.10 44 1015.3
20260502233059 63 89 1.0 8.0 0.00 0.10 0.10 42 1015.0
20260502231605 64 188 1.0 9.0 0.00 0.10 0.10 43 1014.9
20260502230054 64 193 2.0 9.0 0.00 0.10 0.10 39 1014.7
20260502224554 65 214 2.0 7.0 0.00 0.10 0.10 36 1014.9
20260502223054 66 0 2.0 10.0 0.00 0.10 0.10 35 1014.6
20260502221553 67 140 2.0 10.0 0.00 0.10 0.10 36 1014.5
20260502220104 69 169 3.0 10.0 0.00 0.10 0.10 34 1014.5
20260502214555 68 120 3.0 9.0 0.00 0.10 0.10 36 1014.3
20260502213054 69 182 2.0 7.0 0.00 0.10 0.10 34 1014.0
20260502211557 69 107 2.0 9.0 0.00 0.10 0.10 36 1013.9
20260502210106 69 228 4.0 10.0 0.00 0.10 0.10 36 1013.9
20260502204556 69 356 2.0 9.0 0.00 0.10 0.10 38 1013.8
20260502203058 70 207 3.0 9.0 0.00 0.10 0.10 41 1013.9
20260502201603 70 174 1.0 7.0 0.00 0.10 0.10 40 1013.7
20260502200104 70 205 3.0 8.0 0.00 0.10 0.10 37 1013.6
20260502194612 70 255 1.0 7.0 0.00 0.10 0.10 43 1013.8
20260502193101 70 44 1.0 8.0 0.00 0.10 0.10 42 1013.8
20260502191558 71 154 1.0 7.0 0.00 0.10 0.10 40 1013.9
20260502190105 70 167 2.0 8.0 0.00 0.10 0.10 47 1013.6
20260502184600 69 255 2.0 8.0 0.00 0.10 0.10 47 1013.5
20260502183056 69 231 2.0 7.0 0.00 0.10 0.10 50 1013.4
20260502181557 70 297 3.0 12.0 0.00 0.10 0.10 51 1013.3
20260502180122 69 180 1.0 5.0 0.00 0.10 0.10 51 1013.6
20260502163056 65 173 1.0 5.0 0.00 0.10 0.10 60 1014.4
20260502161600 63 228 2.0 5.0 0.00 0.10 0.10 63 1014.3
20260502151606 58 0 2.0 5.0 0.00 0.10 0.10 75 1014.7
20260502123102 52 0 0.0 0.0 0.01 0.09 0.09 93 1013.7
20260502121606 52 0 0.0 0.0 0.00 0.08 0.08 93 1014.6
20260502114554 52 0 0.0 0.0 0.01 0.08 0.08 93 1013.2
20260502113054 52 0 0.0 0.0 0.02 0.08 0.08 93 1014.1
20260502111559 53 0 0.0 0.0 0.02 0.08 0.08 93 1012.6
20260502110054 53 0 0.0 0.0 0.02 0.08 0.08 93 1012.9
20260502104556 53 0 0.0 0.0 0.01 0.07 0.07 93 1013.6
20260502103104 54 0 0.0 1.0 0.00 0.06 0.06 93 1014.1
20260502101614 54 0 0.0 0.0 0.00 0.06 0.06 94 1014.1
20260502100113 55 0 0.0 0.0 0.00 0.06 0.06 94 1013.3
20260502080106 56 0 0.0 0.0 0.02 0.05 0.05 93 1013.2
20260502070052 56 0 0.0 0.0 0.03 0.03 0.03 93 1013.4
20260502064600 56 0 0.0 0.0 0.02 0.02 0.02 93 1013.7
20260502063057 56 0 0.0 0.0 0.01 0.01 0.01 93 1014.1
20260502061552 57 0 0.0 0.0 0.01 0.01 0.01 93 1014.0
20260502060108 57 0 0.0 0.0 0.00 0.00 0.00 92 1014.2
20260502054552 57 0 0.0 0.0 0.00 0.00 0.00 92 1014.2
20260502053100 57 0 0.0 0.0 0.00 0.00 0.00 92 1014.3
20260502051559 57 0 0.0 0.0 0.00 0.00 0.00 92 1014.5